| time (UTC) | temp F | wind direction | speed MPH | gust MPH | rain 1hr in | rain 24hr in | rain mn in | humidity % | barometer mb |
| 20260906134659 | 80 | 160 | 4.0 | 9.0 | 0.00 | 0.00 | 0.00 | 81 | 1015.9 |
| 20260906134159 | 80 | 128 | 4.0 | 10.0 | 0.00 | 0.00 | 0.00 | 81 | 1015.8 |
| 20260906133659 | 81 | 183 | 5.0 | 12.0 | 0.00 | 0.00 | 0.00 | 80 | 1015.7 |
| 20260906133158 | 81 | 139 | 5.0 | 12.0 | 0.00 | 0.00 | 0.00 | 81 | 1015.7 |
| 20260906132658 | 81 | 137 | 3.0 | 9.0 | 0.00 | 0.00 | 0.00 | 81 | 1015.8 |
| 20260906132157 | 81 | 178 | 3.0 | 8.0 | 0.00 | 0.00 | 0.00 | 82 | 1015.8 |
| 20260906131657 | 80 | 108 | 3.0 | 8.0 | 0.00 | 0.00 | 0.00 | 82 | 1015.7 |
| 20260906131159 | 80 | 130 | 3.0 | 8.0 | 0.00 | 0.00 | 0.00 | 83 | 1015.6 |
| 20260906130657 | 80 | 128 | 2.0 | 7.0 | 0.00 | 0.00 | 0.00 | 84 | 1015.6 |
| 20260906130156 | 79 | 117 | 2.0 | 9.0 | 0.00 | 0.00 | 0.00 | 84 | 1015.6 |
| 20260906125657 | 79 | 229 | 4.0 | 9.0 | 0.00 | 0.00 | 0.00 | 84 | 1015.7 |
| 20260906125156 | 79 | 115 | 2.0 | 7.0 | 0.00 | 0.00 | 0.00 | 84 | 1015.7 |
| 20260906124656 | 79 | 129 | 3.0 | 8.0 | 0.00 | 0.00 | 0.00 | 84 | 1015.7 |
| 20260906124156 | 78 | 115 | 4.0 | 9.0 | 0.00 | 0.00 | 0.00 | 84 | 1015.5 |
| 20260906123656 | 78 | 137 | 3.0 | 9.0 | 0.00 | 0.00 | 0.00 | 85 | 1015.4 |
| 20260906123155 | 78 | 144 | 2.0 | 7.0 | 0.00 | 0.00 | 0.00 | 85 | 1015.4 |
| 20260906122155 | 78 | 133 | 2.0 | 6.0 | 0.00 | 0.00 | 0.00 | 85 | 1015.2 |
| 20260906121657 | 78 | 131 | 2.0 | 7.0 | 0.00 | 0.00 | 0.00 | 85 | 1015.3 |
| 20260906121154 | 78 | 123 | 2.0 | 8.0 | 0.00 | 0.00 | 0.00 | 85 | 1015.2 |
| 20260906120655 | 78 | 108 | 3.0 | 8.0 | 0.00 | 0.00 | 0.00 | 85 | 1015.1 |
| 20260906120155 | 78 | 137 | 2.0 | 6.0 | 0.00 | 0.00 | 0.00 | 85 | 1015.1 |
| 20260906115655 | 78 | 124 | 4.0 | 6.0 | 0.00 | 0.00 | 0.00 | 85 | 1014.9 |
| 20260906115155 | 78 | 137 | 3.0 | 7.0 | 0.00 | 0.00 | 0.00 | 85 | 1014.9 |
| 20260906114655 | 78 | 113 | 2.0 | 7.0 | 0.00 | 0.00 | 0.00 | 85 | 1014.8 |
| 20260906114154 | 78 | 117 | 2.0 | 6.0 | 0.00 | 0.00 | 0.00 | 85 | 1014.7 |
| 20260906113654 | 78 | 133 | 2.0 | 5.0 | 0.00 | 0.00 | 0.00 | 85 | 1014.7 |
| 20260906113153 | 78 | 117 | 2.0 | 6.0 | 0.00 | 0.00 | 0.00 | 85 | 1014.7 |
| 20260906112653 | 78 | 126 | 2.0 | 7.0 | 0.00 | 0.00 | 0.00 | 85 | 1014.6 |
| 20260906111654 | 78 | 178 | 3.0 | 7.0 | 0.00 | 0.00 | 0.00 | 85 | 1014.7 |
| 20260906111153 | 78 | 144 | 3.0 | 7.0 | 0.00 | 0.00 | 0.00 | 85 | 1014.7 |
| 20260906110653 | 78 | 170 | 2.0 | 5.0 | 0.00 | 0.00 | 0.00 | 85 | 1014.8 |
| 20260906110152 | 78 | 178 | 1.0 | 4.0 | 0.00 | 0.00 | 0.00 | 85 | 1014.8 |
| 20260906105648 | 78 | 67 | 1.0 | 5.0 | 0.00 | 0.00 | 0.00 | 84 | 1014.8 |
| 20260906105147 | 78 | 102 | 2.0 | 5.0 | 0.00 | 0.00 | 0.00 | 84 | 1014.7 |
| 20260906104646 | 78 | 137 | 2.0 | 3.0 | 0.00 | 0.00 | 0.00 | 84 | 1014.8 |
| 20260906104147 | 78 | 128 | 1.0 | 3.0 | 0.00 | 0.00 | 0.00 | 84 | 1014.7 |
| 20260906103647 | 78 | 196 | 1.0 | 4.0 | 0.00 | 0.00 | 0.00 | 84 | 1014.6 |
| 20260906102646 | 78 | 136 | 2.0 | 6.0 | 0.00 | 0.00 | 0.00 | 84 | 1014.5 |
| 20260906102147 | 78 | 130 | 2.0 | 6.0 | 0.00 | 0.00 | 0.00 | 84 | 1014.4 |
| 20260906101145 | 78 | 137 | 2.0 | 4.0 | 0.00 | 0.00 | 0.00 | 83 | 1014.5 |
| 20260906100646 | 78 | 137 | 1.0 | 5.0 | 0.00 | 0.00 | 0.00 | 84 | 1014.4 |
| 20260906100145 | 78 | 158 | 2.0 | 6.0 | 0.00 | 0.00 | 0.00 | 84 | 1014.5 |
| 20260906095645 | 78 | 148 | 2.0 | 6.0 | 0.00 | 0.00 | 0.00 | 84 | 1014.4 |
| 20260906095145 | 78 | 144 | 2.0 | 7.0 | 0.00 | 0.00 | 0.00 | 84 | 1014.3 |
| 20260906093646 | 78 | 142 | 2.0 | 4.0 | 0.00 | 0.00 | 0.00 | 85 | 1014.4 |
| 20260906093145 | 78 | 129 | 1.0 | 4.0 | 0.00 | 0.00 | 0.00 | 84 | 1014.5 |
| 20260906092645 | 78 | 178 | 0.0 | 2.0 | 0.00 | 0.00 | 0.00 | 84 | 1014.5 |
| 20260906091634 | 78 | 162 | 1.0 | 4.0 | 0.00 | 0.00 | 0.00 | 84 | 1014.3 |
| 20260906091135 | 78 | 137 | 2.0 | 4.0 | 0.00 | 0.00 | 0.00 | 83 | 1014.3 |
| 20260906090135 | 78 | 178 | 1.0 | 3.0 | 0.00 | 0.00 | 0.00 | 83 | 1014.4 |
| 20260906085134 | 78 | 141 | 2.0 | 3.0 | 0.00 | 0.00 | 0.00 | 82 | 1014.5 |
| 20260906084133 | 79 | 144 | 2.0 | 3.0 | 0.00 | 0.00 | 0.00 | 82 | 1014.5 |
| 20260906083633 | 79 | 123 | 1.0 | 3.0 | 0.00 | 0.00 | 0.00 | 82 | 1014.4 |
| 20260906083134 | 79 | 103 | 2.0 | 4.0 | 0.00 | 0.00 | 0.00 | 81 | 1014.4 |
| 20260906082633 | 79 | 131 | 2.0 | 4.0 | 0.00 | 0.00 | 0.00 | 81 | 1014.4 |
| 20260906082132 | 79 | 132 | 2.0 | 4.0 | 0.00 | 0.00 | 0.00 | 81 | 1014.3 |
| 20260906081132 | 79 | 131 | 3.0 | 5.0 | 0.00 | 0.00 | 0.00 | 80 | 1014.2 |
| 20260906080631 | 80 | 131 | 2.0 | 5.0 | 0.00 | 0.00 | 0.00 | 80 | 1014.2 |
| 20260906080131 | 80 | 61 | 2.0 | 5.0 | 0.00 | 0.00 | 0.00 | 80 | 1014.2 |
| 20260906075630 | 80 | 128 | 2.0 | 5.0 | 0.00 | 0.00 | 0.00 | 80 | 1014.2 |
| 20260906075130 | 80 | 137 | 3.0 | 5.0 | 0.00 | 0.00 | 0.00 | 79 | 1014.2 |
| 20260906074630 | 80 | 128 | 2.0 | 7.0 | 0.00 | 0.00 | 0.00 | 80 | 1014.1 |
| 20260906074130 | 80 | 144 | 2.0 | 7.0 | 0.00 | 0.00 | 0.00 | 80 | 1014.0 |
| 20260906073630 | 80 | 108 | 2.0 | 6.0 | 0.00 | 0.00 | 0.00 | 80 | 1014.1 |
| 20260906073131 | 80 | 137 | 2.0 | 7.0 | 0.00 | 0.00 | 0.00 | 80 | 1013.9 |
| 20260906072629 | 80 | 117 | 2.0 | 7.0 | 0.00 | 0.00 | 0.00 | 80 | 1013.9 |
| 20260906072129 | 80 | 150 | 3.0 | 7.0 | 0.00 | 0.00 | 0.00 | 80 | 1013.9 |
| 20260906071129 | 80 | 124 | 3.0 | 7.0 | 0.00 | 0.00 | 0.00 | 80 | 1014.0 |
| 20260906070629 | 80 | 126 | 3.0 | 7.0 | 0.00 | 0.00 | 0.00 | 80 | 1014.1 |
| 20260906070129 | 80 | 117 | 3.0 | 7.0 | 0.00 | 0.00 | 0.00 | 80 | 1014.1 |
| 20260906065629 | 80 | 205 | 3.0 | 7.0 | 0.00 | 0.00 | 0.00 | 80 | 1014.2 |
| 20260906065127 | 81 | 160 | 3.0 | 7.0 | 0.00 | 0.00 | 0.00 | 80 | 1014.3 |
| 20260906064128 | 81 | 178 | 3.0 | 7.0 | 0.00 | 0.00 | 0.00 | 80 | 1014.3 |
| 20260906063628 | 81 | 205 | 3.0 | 7.0 | 0.00 | 0.00 | 0.00 | 79 | 1014.3 |
| 20260906063129 | 81 | 123 | 2.0 | 7.0 | 0.00 | 0.00 | 0.00 | 79 | 1014.3 |
| 20260906062627 | 81 | 170 | 4.0 | 7.0 | 0.00 | 0.00 | 0.00 | 79 | 1014.4 |
| 20260906062127 | 81 | 128 | 3.0 | 7.0 | 0.00 | 0.00 | 0.00 | 79 | 1014.3 |
| 20260906061627 | 82 | 132 | 3.0 | 7.0 | 0.00 | 0.00 | 0.00 | 79 | 1014.5 |
| 20260906061127 | 82 | 131 | 2.0 | 6.0 | 0.00 | 0.00 | 0.00 | 79 | 1014.4 |
| 20260906060627 | 82 | 51 | 1.0 | 5.0 | 0.00 | 0.00 | 0.00 | 78 | 1014.4 |
| 20260906060127 | 82 | 153 | 2.0 | 5.0 | 0.00 | 0.00 | 0.00 | 78 | 1014.3 |
| 20260906055628 | 82 | 132 | 3.0 | 5.0 | 0.00 | 0.00 | 0.00 | 78 | 1014.4 |
| 20260906055126 | 82 | 162 | 2.0 | 7.0 | 0.00 | 0.00 | 0.00 | 78 | 1014.5 |
| 20260906054627 | 82 | 153 | 2.0 | 7.0 | 0.00 | 0.00 | 0.00 | 77 | 1014.4 |
| 20260906054127 | 82 | 162 | 2.0 | 7.0 | 0.00 | 0.00 | 0.00 | 77 | 1014.4 |
| 20260906053624 | 82 | 137 | 3.0 | 7.0 | 0.00 | 0.00 | 0.00 | 77 | 1014.4 |
| 20260906053126 | 82 | 137 | 1.0 | 10.0 | 0.00 | 0.00 | 0.00 | 77 | 1014.4 |
| 20260906052123 | 83 | 96 | 4.0 | 10.0 | 0.00 | 0.00 | 0.00 | 77 | 1014.3 |
| 20260906051624 | 83 | 116 | 4.0 | 11.0 | 0.00 | 0.00 | 0.00 | 77 | 1014.3 |
| 20260906051124 | 83 | 133 | 6.0 | 11.0 | 0.00 | 0.00 | 0.00 | 77 | 1014.2 |
| 20260906050623 | 83 | 105 | 5.0 | 10.0 | 0.00 | 0.00 | 0.00 | 76 | 1014.3 |
| 20260906050124 | 83 | 115 | 5.0 | 11.0 | 0.00 | 0.00 | 0.00 | 76 | 1014.3 |
| 20260906045623 | 83 | 113 | 5.0 | 11.0 | 0.00 | 0.00 | 0.00 | 76 | 1014.3 |
| 20260906045123 | 83 | 117 | 5.0 | 10.0 | 0.00 | 0.00 | 0.00 | 76 | 1014.3 |
| 20260906044623 | 83 | 93 | 6.0 | 11.0 | 0.00 | 0.00 | 0.00 | 76 | 1014.3 |
| 20260906043122 | 83 | 117 | 5.0 | 11.0 | 0.00 | 0.00 | 0.00 | 75 | 1014.3 |
| 20260906042623 | 83 | 178 | 5.0 | 11.0 | 0.00 | 0.00 | 0.00 | 75 | 1014.3 |
| 20260906042122 | 84 | 140 | 4.0 | 9.0 | 0.00 | 0.00 | 0.00 | 74 | 1014.4 |
| 20260906041622 | 84 | 141 | 4.0 | 9.0 | 0.00 | 0.00 | 0.00 | 74 | 1014.5 |
| 20260906041121 | 84 | 137 | 2.0 | 11.0 | 0.00 | 0.00 | 0.00 | 74 | 1014.6 |
| 20260906040621 | 84 | 119 | 5.0 | 11.0 | 0.00 | 0.00 | 0.00 | 75 | 1014.4 |
| 20260906040122 | 84 | 123 | 4.0 | 10.0 | 0.00 | 0.00 | 0.00 | 75 | 1014.3 |
| 20260906035122 | 84 | 123 | 4.0 | 8.0 | 0.00 | 0.00 | 0.00 | 75 | 1014.3 |
| 20260906034620 | 84 | 325 | 3.0 | 8.0 | 0.00 | 0.00 | 0.00 | 75 | 1014.4 |
| 20260906034123 | 84 | 139 | 3.0 | 8.0 | 0.00 | 0.00 | 0.00 | 75 | 1014.3 |
| 20260906033621 | 84 | 98 | 3.0 | 7.0 | 0.00 | 0.00 | 0.00 | 75 | 1014.3 |
| 20260906033121 | 84 | 126 | 2.0 | 7.0 | 0.00 | 0.00 | 0.00 | 75 | 1014.3 |
| 20260906031620 | 84 | 113 | 3.0 | 6.0 | 0.00 | 0.00 | 0.00 | 75 | 1014.2 |
| 20260906031120 | 85 | 137 | 3.0 | 6.0 | 0.00 | 0.00 | 0.00 | 75 | 1014.2 |
| 20260906030620 | 85 | 106 | 2.0 | 8.0 | 0.00 | 0.00 | 0.00 | 75 | 1014.1 |
| 20260906030120 | 85 | 126 | 3.0 | 8.0 | 0.00 | 0.00 | 0.00 | 74 | 1014.0 |
| 20260906025620 | 85 | 110 | 3.0 | 9.0 | 0.00 | 0.00 | 0.00 | 74 | 1014.0 |
| 20260906025119 | 85 | 121 | 4.0 | 10.0 | 0.00 | 0.00 | 0.00 | 74 | 1013.8 |
| 20260906024619 | 85 | 126 | 4.0 | 10.0 | 0.00 | 0.00 | 0.00 | 74 | 1013.8 |
| 20260906023119 | 85 | 108 | 6.0 | 10.0 | 0.00 | 0.00 | 0.00 | 74 | 1013.5 |
| 20260906022118 | 85 | 126 | 3.0 | 9.0 | 0.00 | 0.00 | 0.00 | 74 | 1013.6 |
| 20260906021618 | 85 | 123 | 4.0 | 9.0 | 0.00 | 0.00 | 0.00 | 73 | 1013.5 |
| 20260906021118 | 86 | 153 | 3.0 | 8.0 | 0.00 | 0.00 | 0.00 | 73 | 1013.4 |
| 20260906020618 | 86 | 115 | 2.0 | 7.0 | 0.00 | 0.00 | 0.00 | 73 | 1013.4 |
| 20260906020118 | 86 | 119 | 3.0 | 9.0 | 0.00 | 0.00 | 0.00 | 72 | 1013.3 |
| 20260906015618 | 86 | 61 | 4.0 | 9.0 | 0.00 | 0.00 | 0.00 | 72 | 1013.1 |
| 20260906015117 | 86 | 109 | 3.0 | 6.0 | 0.00 | 0.00 | 0.00 | 72 | 1013.0 |
| 20260906014617 | 86 | 93 | 2.0 | 7.0 | 0.00 | 0.00 | 0.00 | 72 | 1013.0 |
| 20260906014118 | 86 | 98 | 3.0 | 7.0 | 0.00 | 0.00 | 0.00 | 71 | 1013.0 |
| 20260906013617 | 86 | 117 | 4.0 | 7.0 | 0.00 | 0.00 | 0.00 | 71 | 1012.8 |
| 20260906013117 | 87 | 111 | 3.0 | 6.0 | 0.00 | 0.00 | 0.00 | 70 | 1012.7 |
| 20260906012116 | 87 | 134 | 2.0 | 7.0 | 0.00 | 0.00 | 0.00 | 69 | 1012.6 |
| 20260906011617 | 87 | 51 | 2.0 | 7.0 | 0.00 | 0.00 | 0.00 | 69 | 1012.6 |
| 20260906010615 | 88 | 137 | 3.0 | 7.0 | 0.00 | 0.00 | 0.00 | 68 | 1012.5 |
| 20260906005615 | 88 | 93 | 2.0 | 9.0 | 0.00 | 0.00 | 0.00 | 67 | 1012.5 |
| 20260906005115 | 88 | 99 | 6.0 | 11.0 | 0.00 | 0.00 | 0.00 | 67 | 1012.5 |
| 20260906004615 | 88 | 107 | 7.0 | 11.0 | 0.00 | 0.00 | 0.00 | 67 | 1012.4 |
| 20260906003114 | 89 | 132 | 3.0 | 11.0 | 0.00 | 0.00 | 0.00 | 65 | 1012.5 |
| 20260906002613 | 89 | 126 | 3.0 | 12.0 | 0.00 | 0.00 | 0.00 | 65 | 1012.6 |
| 20260906002113 | 89 | 115 | 6.0 | 12.0 | 0.00 | 0.00 | 0.00 | 64 | 1012.4 |
| 20260906001613 | 90 | 139 | 6.0 | 15.0 | 0.00 | 0.00 | 0.00 | 64 | 1012.3 |
| 20260906001112 | 90 | 97 | 8.0 | 15.0 | 0.00 | 0.00 | 0.00 | 63 | 1012.2 |
| 20260906000612 | 90 | 123 | 9.0 | 14.0 | 0.00 | 0.00 | 0.00 | 63 | 1012.2 |
| 20260906000112 | 91 | 102 | 7.0 | 13.0 | 0.00 | 0.00 | 0.00 | 63 | 1012.2 |
| 20260905235113 | 91 | 117 | 8.0 | 14.0 | 0.00 | 0.00 | 0.00 | 61 | 1012.1 |
| 20260905234612 | 92 | 121 | 4.0 | 11.0 | 0.00 | 0.00 | 0.00 | 61 | 1012.1 |
| 20260905234112 | 92 | 130 | 4.0 | 11.0 | 0.00 | 0.00 | 0.00 | 61 | 1012.2 |
| 20260905233611 | 92 | 149 | 4.0 | 10.0 | 0.00 | 0.00 | 0.00 | 61 | 1012.2 |
| 20260905233111 | 92 | 156 | 4.0 | 10.0 | 0.00 | 0.00 | 0.00 | 61 | 1012.2 |
| 20260905232611 | 92 | 123 | 6.0 | 12.0 | 0.00 | 0.00 | 0.00 | 60 | 1012.2 |
| 20260905231109 | 92 | 178 | 6.0 | 11.0 | 0.00 | 0.00 | 0.00 | 60 | 1012.3 |
| 20260905230610 | 92 | 129 | 6.0 | 11.0 | 0.00 | 0.00 | 0.00 | 60 | 1012.2 |
| 20260905230108 | 93 | 139 | 6.0 | 9.0 | 0.00 | 0.00 | 0.00 | 58 | 1012.2 |
| 20260905225605 | 93 | 209 | 3.0 | 11.0 | 0.00 | 0.00 | 0.00 | 57 | 1012.3 |
| 20260905225104 | 93 | 162 | 3.0 | 11.0 | 0.00 | 0.00 | 0.00 | 58 | 1012.2 |
| 20260905224602 | 93 | 139 | 3.0 | 11.0 | 0.00 | 0.00 | 0.00 | 58 | 1012.2 |
| 20260905224104 | 93 | 205 | 4.0 | 11.0 | 0.00 | 0.00 | 0.00 | 57 | 1012.2 |
| 20260905223601 | 93 | 237 | 5.0 | 10.0 | 0.00 | 0.00 | 0.00 | 56 | 1012.2 |
| 20260905223101 | 93 | 173 | 6.0 | 10.0 | 0.00 | 0.00 | 0.00 | 57 | 1012.2 |
| 20260905222601 | 93 | 184 | 4.0 | 10.0 | 0.00 | 0.00 | 0.00 | 57 | 1012.1 |
| 20260905222101 | 93 | 208 | 4.0 | 13.0 | 0.00 | 0.00 | 0.00 | 58 | 1012.0 |
| 20260905221600 | 93 | 151 | 6.0 | 13.0 | 0.00 | 0.00 | 0.00 | 57 | 1011.9 |
| 20260905221101 | 93 | 173 | 6.0 | 10.0 | 0.00 | 0.00 | 0.00 | 57 | 1011.8 |
| 20260905220600 | 92 | 137 | 3.0 | 10.0 | 0.00 | 0.00 | 0.00 | 59 | 1011.8 |
| 20260905220100 | 92 | 144 | 6.0 | 12.0 | 0.00 | 0.00 | 0.00 | 58 | 1011.8 |
| 20260905215600 | 92 | 163 | 5.0 | 17.0 | 0.00 | 0.00 | 0.00 | 58 | 1011.7 |
| 20260905215100 | 92 | 130 | 9.0 | 17.0 | 0.00 | 0.00 | 0.00 | 56 | 1011.8 |
| 20260905214600 | 92 | 132 | 7.0 | 13.0 | 0.00 | 0.00 | 0.00 | 56 | 1011.8 |
| 20260905214101 | 93 | 141 | 5.0 | 13.0 | 0.00 | 0.00 | 0.00 | 57 | 1011.9 |
| 20260905213600 | 92 | 144 | 5.0 | 13.0 | 0.00 | 0.00 | 0.00 | 58 | 1012.0 |
| 20260905213058 | 92 | 113 | 4.0 | 13.0 | 0.00 | 0.00 | 0.00 | 57 | 1012.2 |
| 20260905212558 | 92 | 155 | 5.0 | 14.0 | 0.00 | 0.00 | 0.00 | 56 | 1012.2 |
| 20260905212058 | 92 | 184 | 5.0 | 14.0 | 0.00 | 0.00 | 0.00 | 55 | 1012.2 |
| 20260905211558 | 92 | 130 | 7.0 | 13.0 | 0.00 | 0.00 | 0.00 | 55 | 1012.2 |
| 20260905210057 | 91 | 128 | 8.0 | 16.0 | 0.00 | 0.00 | 0.00 | 56 | 1012.5 |
| 20260905205057 | 91 | 131 | 8.0 | 13.0 | 0.00 | 0.00 | 0.00 | 56 | 1012.6 |
| 20260905204058 | 91 | 144 | 9.0 | 14.0 | 0.00 | 0.00 | 0.00 | 57 | 1012.8 |
| 20260905203556 | 91 | 133 | 10.0 | 14.0 | 0.00 | 0.00 | 0.00 | 56 | 1012.9 |
| 20260905203056 | 91 | 212 | 5.0 | 13.0 | 0.00 | 0.00 | 0.00 | 58 | 1013.0 |
| 20260905202556 | 90 | 40 | 7.0 | 14.0 | 0.00 | 0.00 | 0.00 | 57 | 1013.3 |
| 20260905202055 | 90 | 99 | 8.0 | 15.0 | 0.00 | 0.00 | 0.00 | 57 | 1013.3 |
| 20260905201556 | 90 | 123 | 8.0 | 15.0 | 0.00 | 0.00 | 0.00 | 56 | 1013.4 |
| 20260905201055 | 90 | 132 | 6.0 | 15.0 | 0.00 | 0.00 | 0.00 | 58 | 1013.6 |
| 20260905200055 | 90 | 133 | 8.0 | 16.0 | 0.00 | 0.00 | 0.00 | 58 | 1014.0 |
| 20260905195555 | 90 | 137 | 6.0 | 16.0 | 0.00 | 0.00 | 0.00 | 58 | 1014.2 |
| 20260905194554 | 90 | 128 | 6.0 | 11.0 | 0.00 | 0.00 | 0.00 | 58 | 1014.5 |
| 20260905194055 | 90 | 51 | 4.0 | 12.0 | 0.00 | 0.00 | 0.00 | 58 | 1014.7 |
| 20260905193554 | 90 | 123 | 6.0 | 12.0 | 0.00 | 0.00 | 0.00 | 59 | 1014.6 |
| 20260905193054 | 89 | 133 | 7.0 | 13.0 | 0.00 | 0.00 | 0.00 | 58 | 1014.7 |
| 20260905192554 | 89 | 38 | 6.0 | 13.0 | 0.00 | 0.00 | 0.00 | 56 | 1014.6 |
| 20260905192053 | 89 | 98 | 6.0 | 13.0 | 0.00 | 0.00 | 0.00 | 58 | 1014.5 |
| 20260905191554 | 89 | 110 | 6.0 | 12.0 | 0.00 | 0.00 | 0.00 | 59 | 1014.6 |
| 20260905191054 | 89 | 93 | 7.0 | 14.0 | 0.00 | 0.00 | 0.00 | 57 | 1014.7 |
| 20260905190553 | 89 | 80 | 6.0 | 16.0 | 0.00 | 0.00 | 0.00 | 58 | 1014.8 |
| 20260905190053 | 89 | 92 | 11.0 | 16.0 | 0.00 | 0.00 | 0.00 | 58 | 1014.9 |
| 20260905185553 | 89 | 131 | 3.0 | 15.0 | 0.00 | 0.00 | 0.00 | 63 | 1015.1 |
| 20260905185051 | 89 | 123 | 7.0 | 15.0 | 0.00 | 0.00 | 0.00 | 62 | 1015.3 |
| 20260905184551 | 88 | 124 | 9.0 | 15.0 | 0.00 | 0.00 | 0.00 | 63 | 1015.6 |
| 20260905183548 | 88 | 51 | 6.0 | 16.0 | 0.00 | 0.00 | 0.00 | 64 | 1015.6 |
| 20260905183048 | 88 | 27 | 6.0 | 14.0 | 0.00 | 0.00 | 0.00 | 66 | 1015.8 |
| 20260905182549 | 88 | 160 | 4.0 | 15.0 | 0.00 | 0.00 | 0.00 | 69 | 1015.8 |
| 20260905182049 | 88 | 117 | 9.0 | 21.0 | 0.00 | 0.00 | 0.00 | 67 | 1015.7 |
| 20260905181549 | 88 | 129 | 6.0 | 21.0 | 0.00 | 0.00 | 0.00 | 67 | 1015.8 |
| 20260905181048 | 88 | 341 | 5.0 | 13.0 | 0.00 | 0.00 | 0.00 | 66 | 1016.0 |
| 20260905180548 | 88 | 21 | 7.0 | 16.0 | 0.00 | 0.00 | 0.00 | 67 | 1016.0 |
| 20260905180049 | 88 | 142 | 5.0 | 16.0 | 0.00 | 0.00 | 0.00 | 68 | 1015.9 |
| 20260905175548 | 88 | 105 | 5.0 | 15.0 | 0.00 | 0.00 | 0.00 | 70 | 1015.9 |
| 20260905175048 | 87 | 344 | 6.0 | 15.0 | 0.00 | 0.00 | 0.00 | 69 | 1015.8 |
| 20260905174548 | 87 | 15 | 4.0 | 12.0 | 0.00 | 0.00 | 0.00 | 70 | 1015.8 |
| 20260905174049 | 87 | 110 | 6.0 | 12.0 | 0.00 | 0.00 | 0.00 | 72 | 1015.8 |
| 20260905173547 | 86 | 123 | 5.0 | 18.0 | 0.00 | 0.00 | 0.00 | 72 | 1015.9 |
| 20260905173047 | 86 | 347 | 6.0 | 18.0 | 0.00 | 0.00 | 0.00 | 70 | 1015.8 |
| 20260905172547 | 86 | 319 | 7.0 | 16.0 | 0.00 | 0.00 | 0.00 | 70 | 1015.8 |
| 20260905172047 | 86 | 34 | 5.0 | 17.0 | 0.00 | 0.00 | 0.00 | 71 | 1016.0 |
| 20260905171546 | 87 | 23 | 5.0 | 17.0 | 0.00 | 0.00 | 0.00 | 70 | 1016.0 |
| 20260905171046 | 87 | 80 | 4.0 | 12.0 | 0.00 | 0.00 | 0.00 | 71 | 1015.9 |
| 20260905170546 | 87 | 109 | 4.0 | 12.0 | 0.00 | 0.00 | 0.00 | 70 | 1016.1 |
| 20260905170046 | 87 | 13 | 2.0 | 14.0 | 0.00 | 0.00 | 0.00 | 73 | 1015.9 |
| 20260905165546 | 86 | 26 | 7.0 | 14.0 | 0.00 | 0.00 | 0.00 | 71 | 1015.9 |
| 20260905165046 | 87 | 9 | 8.0 | 13.0 | 0.00 | 0.00 | 0.00 | 69 | 1016.1 |
| 20260905163545 | 86 | 24 | 4.0 | 11.0 | 0.00 | 0.00 | 0.00 | 70 | 1016.1 |
| 20260905163045 | 86 | 334 | 4.0 | 11.0 | 0.00 | 0.00 | 0.00 | 70 | 1016.1 |
| 20260905162545 | 87 | 48 | 4.0 | 14.0 | 0.00 | 0.00 | 0.00 | 73 | 1016.2 |
| 20260905162045 | 87 | 11 | 7.0 | 14.0 | 0.00 | 0.00 | 0.00 | 72 | 1016.1 |
| 20260905161544 | 87 | 36 | 4.0 | 11.0 | 0.00 | 0.00 | 0.00 | 71 | 1016.1 |
| 20260905161045 | 88 | 316 | 3.0 | 17.0 | 0.00 | 0.00 | 0.00 | 73 | 1016.1 |
| 20260905160545 | 88 | 13 | 10.0 | 17.0 | 0.00 | 0.00 | 0.00 | 72 | 1016.2 |
| 20260905160044 | 88 | 334 | 5.0 | 9.0 | 0.00 | 0.00 | 0.00 | 70 | 1015.9 |
| 20260905154545 | 88 | 46 | 4.0 | 6.0 | 0.00 | 0.00 | 0.00 | 69 | 1015.5 |
| 20260905153543 | 88 | 34 | 3.0 | 9.0 | 0.00 | 0.00 | 0.00 | 70 | 1015.5 |
| 20260905153044 | 88 | 319 | 4.0 | 9.0 | 0.00 | 0.00 | 0.00 | 72 | 1015.6 |
| 20260905152543 | 87 | 344 | 4.0 | 7.0 | 0.00 | 0.00 | 0.00 | 73 | 1015.5 |
| 20260905152043 | 87 | 13 | 3.0 | 5.0 | 0.00 | 0.00 | 0.00 | 71 | 1015.5 |
| 20260905151543 | 87 | 44 | 1.0 | 3.0 | 0.00 | 0.00 | 0.00 | 74 | 1015.3 |
| 20260905151043 | 86 | 340 | 1.0 | 3.0 | 0.00 | 0.00 | 0.00 | 72 | 1015.2 |
| 20260905150543 | 86 | 34 | 2.0 | 3.0 | 0.00 | 0.00 | 0.00 | 70 | 1015.0 |
| 20260905150042 | 86 | 123 | 1.0 | 3.0 | 0.00 | 0.00 | 0.00 | 69 | 1015.0 |
| 20260905145542 | 85 | 9 | 1.0 | 3.0 | 0.00 | 0.00 | 0.00 | 70 | 1015.0 |
| 20260905145042 | 85 | 265 | 0.0 | 2.0 | 0.00 | 0.00 | 0.00 | 70 | 1014.9 |
| 20260905144543 | 85 | 178 | 1.0 | 3.0 | 0.00 | 0.00 | 0.00 | 71 | 1014.8 |
| 20260905144041 | 85 | 137 | 0.0 | 4.0 | 0.00 | 0.00 | 0.00 | 73 | 1014.7 |
| 20260905143041 | 85 | 346 | 2.0 | 3.0 | 0.00 | 0.00 | 0.00 | 71 | 1014.7 |
| 20260905142540 | 85 | 9 | 0.0 | 4.0 | 0.00 | 0.00 | 0.00 | 73 | 1014.5 |
| 20260905141535 | 84 | 178 | 2.0 | 5.0 | 0.00 | 0.00 | 0.00 | 74 | 1014.2 |
| 20260905140536 | 82 | 129 | 2.0 | 5.0 | 0.00 | 0.00 | 0.00 | 81 | 1014.4 |
| 20260905140035 | 80 | 76 | 3.0 | 5.0 | 0.00 | 0.00 | 0.00 | 84 | 1014.1 |
| 20260905135535 | 79 | 193 | 2.0 | 6.0 | 0.00 | 0.00 | 0.00 | 86 | 1013.8 |
| 20260905135034 | 78 | 164 | 2.0 | 6.0 | 0.00 | 0.00 | 0.00 | 88 | 1013.8 |